Walla Walla, WA
on Monday, November 19, 2012

Monday
Previous Day Next Day
Daily Summary
 ActualAverage (KPDT)Record (KPDT)
Temperature
Mean Temperature °F 40°F  
Max Temperature 64°F 48°F 74°F (1897)
Min Temperature 50°F 33°F 12°F (1929)
Degree Days
Heating Degree Days 8 25  
Month to date heating degree days 413  
Since 1 July heating degree days 955  
Cooling Degree Days 0 0  
Month to date cooling degree days 0  
Year to date cooling degree days 636  
Growing Degree Days7 (Base °F )  
Moisture
Dew Point 40°F   
Average Humidity 56    
Maximum Humidity 96    
Minimum Humidity 36    
Precipitation
Precipitation 0.14 in 0.05 in 0.90 in (1921)
Month to date precipitation 0.95  
Year to date precipitation 10.62  
Snow
Snow 0.00 in 0.00 in 6.00 in (1978)
Month to date snowfall 0.5  
Year to date snowfall 8.3  
Since 1 July snowfall 0.6  
Snow Depth in   
Wind
Wind Speed 26 mph   
Max Wind Speed 37 mph   
Max Gust Speed 52 mph   
Visibility 9 miles   
Events Rain   

Key: T is trace of precipitation, MM is missing value
Source: NWS Daily Summary
Time(PST)TemperatureDew PointHumidity Pressure Visibility Wind DirectionWind SpeedGust SpeedPrecipitationEvents Conditions
12:53 AM 55.0°F 34.0°F 45% 29.77 in 10.0 miles SSE 26.5 mph 39.1 mph 0.00 in Rain Light Rain
1:53 AM 52.0°F 39.0°F 61% 29.82 in 10.0 miles SSE 29.9 mph 34.5 mph 0.00 in Rain Light Rain
2:53 AM 51.1°F 39.9°F 66% 29.83 in 9.0 miles South 18.4 mph 32.2 mph 0.03 in Rain Light Rain
3:53 AM 52.0°F 39.0°F 61% 29.79 in 10.0 miles SSE 27.6 mph 39.1 mph 0.01 in Rain Light Rain
4:53 AM 54.0°F 37.9°F 55% 29.78 in 10.0 miles SSE 33.4 mph 42.6 mph 0.00 in   Overcast
5:53 AM 55.0°F 37.0°F 51% 29.76 in 10.0 miles SSE 29.9 mph 41.4 mph 0.00 in   Overcast
6:53 AM 57.0°F 35.1°F 44% 29.76 in 10.0 miles SSE 33.4 mph 43.7 mph N/A   Overcast
7:53 AM 57.0°F 35.1°F 44% 29.76 in 10.0 miles SSE 33.4 mph 44.9 mph N/A   Overcast
8:53 AM 57.9°F 34.0°F 41% 29.77 in 10.0 miles SSE 27.6 mph 39.1 mph N/A   Overcast
9:53 AM 57.9°F 36.0°F 44% 29.75 in 10.0 miles SSE 28.8 mph 40.3 mph 0.00 in   Overcast
10:53 AM 59.0°F 36.0°F 42% 29.75 in 10.0 miles SSE 36.8 mph 50.6 mph N/A   Overcast
11:53 AM 60.1°F 36.0°F 41% 29.71 in 10.0 miles SSE 33.4 mph 44.9 mph N/A   Overcast
12:53 PM 60.1°F 36.0°F 41% 29.68 in 10.0 miles SSE 35.7 mph 47.2 mph N/A   Overcast
1:53 PM 60.1°F 37.0°F 42% 29.68 in 10.0 miles SSE 36.8 mph 48.3 mph N/A   Overcast
2:53 PM 59.0°F 41.0°F 51% 29.67 in 10.0 miles SSE 33.4 mph 46.0 mph 0.00 in Rain Light Rain
3:53 PM 61.0°F 37.9°F 42% 29.63 in 10.0 miles SSE 36.8 mph 51.8 mph 0.00 in   Overcast
4:53 PM 62.1°F 37.9°F 41% 29.61 in 10.0 miles SSE 34.5 mph 43.7 mph N/A   Overcast
5:53 PM 64.0°F 37.0°F 37% 29.62 in 10.0 miles SSE 33.4 mph 49.5 mph N/A   Overcast
6:53 PM 64.0°F 37.0°F 37% 29.65 in 10.0 miles South 33.4 mph 42.6 mph N/A   Overcast
7:53 PM 64.9°F 37.0°F 36% 29.67 in 10.0 miles South 25.3 mph 40.3 mph 0.00 in   Overcast
8:07 PM 60.8°F 39.2°F 45% 29.70 in 10.0 miles SW 11.5 mph 29.9 mph 0.00 in   Overcast
8:53 PM 55.0°F 46.0°F 72% 29.72 in 10.0 miles West 4.6 mph - 0.00 in   Overcast
9:53 PM 52.0°F 46.9°F 83% 29.78 in 10.0 miles NW 6.9 mph - 0.00 in Rain Light Rain
10:18 PM 51.8°F 48.2°F 88% 29.81 in 8.0 miles NE 4.6 mph - 0.01 in Rain Light Rain
10:40 PM 51.8°F 48.2°F 88% 29.82 in 4.0 miles Calm Calm - 0.03 in Rain Light Rain
10:53 PM 52.0°F 48.0°F 86% 29.82 in 5.0 miles Calm Calm - 0.03 in Rain Light Rain
11:44 PM 50.0°F 48.2°F 94% 29.84 in 6.0 miles ENE 3.5 mph - 0.06 in Rain Light Rain
11:53 PM 50.0°F 48.9°F 96% 29.85 in 6.0 miles Calm Calm - 0.07 in Rain Light Rain
Moon Phase
Nov. 19 Nov. 20 Nov. 28 Dec. 06 Dec. 13
Sunrise:07:00 AM (PST) Moon Rise:11:57 AM (PST)11/19
Sunset:04:16 PM (PST) Moon Set:10:58 PM (PST)11/19

Copyright © 2014 The Weather Underground, Inc.